Wind_Speed
13 13 14 16 19 21 23 25 25 23 22 23 21 20 18 15 13 11 11 10 8 6 5 3 3 4 4 5 5 6 7 7 7 6 6 5 5 5 4 4 3 3 3 3 3 4 4 4 5
11 12 13 15 18 19 22 24 23 22 22 22 21 20 18 15 14 12 11 10 8 6 5 4 3 3 4 4 5 5 6 6 6 6 6 5 5 5 5 4 3 3 3 3 3 3 4 4 4
9 10 11 14 16 18 21 22 22 22 22 22 22 20 18 16 14 12 11 9 7 5 4 4 4 4 4 4 4 4 5 5 6 6 5 5 5 5 4 4 4 3 3 3 3 3 3 4 4
7 8 10 13 15 17 19 20 21 21 22 21 20 19 18 16 14 13 11 10 8 6 4 4 4 4 3 3 4 3 4 4 5 5 5 5 5 5 4 4 4 3 3 3 3 4 3 4 4
6 6 8 11 13 16 17 18 19 20 20 20 19 19 18 16 14 13 11 10 8 7 5 4 3 3 3 2 2 3 3 3 4 4 4 5 5 5 5 4 4 4 3 3 3 3 3 4 4
5 5 6 8 10 13 15 17 18 18 18 19 19 18 18 17 15 13 12 10 8 7 6 4 3 2 2 1 1 1 2 2 2 3 4 4 4 4 4 4 4 3 3 2 2 3 2 3 3
4 3 4 7 9 11 12 14 16 16 16 17 18 18 17 17 15 14 13 10 9 8 7 6 3 2 1 1 0 0 1 1 2 2 2 2 2 3 4 4 3 3 3 2 2 3 2 2 3
2 2 3 5 7 9 10 12 14 15 16 16 17 18 18 18 16 14 13 11 9 8 8 7 5 2 1 0 0 1 2 2 2 2 1 1 1 2 2 3 3 2 2 2 3 2 2 2 2
1 1 4 6 7 8 10 11 12 14 14 15 17 17 18 18 17 14 13 11 9 9 8 7 6 4 2 0 0 1 2 3 3 2 2 1 1 1 2 2 3 2 2 2 2 2 2 2 2
2 3 4 6 7 8 9 10 11 13 14 14 15 16 17 18 17 15 13 12 10 8 8 8 7 4 3 1 0 1 2 3 3 3 3 2 2 1 1 1 2 2 2 2 2 2 2 2 2
4 5 5 6 7 7 8 10 11 12 13 13 13 14 15 17 16 15 14 12 9 8 8 8 7 5 3 1 1 1 2 3 4 3 3 3 3 2 2 1 1 1 2 2 2 2 2 2 1
4 5 6 6 6 7 8 9 10 11 11 11 12 13 15 15 16 15 13 12 10 9 8 8 7 5 4 3 2 2 2 3 5 4 4 4 4 4 3 3 2 2 2 2 2 2 2 2 2
4 5 5 5 5 5 6 7 9 10 10 10 11 13 14 14 14 14 13 11 9 9 9 7 7 6 5 3 2 3 3 4 5 6 6 6 6 5 5 4 4 3 3 3 2 2 2 2 2
4 4 4 4 4 5 5 6 8 9 9 10 11 12 13 13 12 13 13 11 9 8 8 8 8 6 5 2 2 3 4 4 5 6 7 7 7 7 6 5 5 5 4 4 3 3 2 3 3
4 4 4 5 6 5 4 5 6 9 10 10 11 12 12 12 12 13 12 10 10 9 8 8 8 6 5 3 3 3 4 4 4 5 7 8 8 8 8 7 7 6 6 5 5 4 4 4 4
6 6 6 7 7 7 6 5 6 8 9 9 10 11 12 12 12 12 11 10 11 10 9 9 8 6 5 4 4 4 4 4 5 6 7 8 9 9 9 8 8 8 7 6 6 6 5 5 4
9 8 8 9 10 10 8 7 7 8 9 9 10 11 12 12 12 11 11 11 11 11 10 9 7 6 5 4 5 5 5 5 5 6 7 8 9 8 9 9 9 8 8 8 8 7 6 6 6
11 11 11 11 11 11 10 9 9 8 9 10 10 11 13 12 12 12 11 11 11 11 10 9 8 7 5 5 6 6 5 6 6 6 7 8 9 9 9 9 10 9 9 9 8 8 8 7 7
13 12 12 13 14 13 12 11 10 10 10 11 11 12 13 13 14 13 12 11 11 10 9 8 8 7 5 5 6 6 5 7 7 7 7 8 9 9 10 10 10 10 10 9 9 8 8 8 7
14 13 14 15 15 14 14 13 12 12 12 12 12 13 14 14 14 14 13 12 11 10 9 9 8 7 6 6 7 6 6 6 7 7 8 8 8 9 10 10 10 10 10 10 10 9 8 8 8
15 15 16 17 17 16 15 14 13 13 13 13 13 13 13 14 14 14 13 13 11 11 11 10 8 8 7 6 6 6 6 6 7 7 8 8 7 8 10 11 11 11 11 11 11 10 10 10 9
17 18 18 18 18 18 17 16 13 13 13 13 13 13 13 13 14 14 14 14 12 11 10 8 8 8 8 7 7 7 6 7 7 7 8 8 9 9 10 12 12 13 13 13 13 12 12 12 11
19 20 19 19 18 19 19 18 14 14 13 13 12 13 12 12 13 13 14 13 11 10 8 7 7 7 7 7 7 8 8 8 8 8 8 9 10 11 11 12 13 14 14 15 14 14 13 13 13
20 21 20 20 19 19 19 19 15 14 13 13 13 12 12 12 13 13 12 12 10 8 7 7 7 7 6 7 7 8 8 9 10 9 9 9 10 11 12 13 14 14 15 15 15 15 15 15 15
22 21 21 20 20 19 18 18 16 14 13 13 12 12 11 11 13 13 11 11 9 8 7 7 7 7 7 7 8 8 8 9 10 10 10 10 11 12 13 14 14 15 16 16 17 17 17 17 16
23 22 22 21 20 19 19 18 15 13 13 12 11 10 10 11 12 12 12 10 9 7 7 7 6 7 7 7 7 8 9 9 10 10 11 11 12 13 13 14 15 16 16 17 17 18 18 18 18
24 23 22 22 21 20 19 17 14 13 12 12 11 10 11 12 12 12 12 11 9 8 8 7 5 5 6 7 7 7 7 8 9 10 11 11 12 13 14 14 15 16 17 17 18 18 19 19 20
26 24 24 23 22 21 19 17 15 13 13 12 10 11 12 12 12 12 12 10 8 7 7 6 6 6 6 6 7 7 7 7 8 9 10 12 13 13 14 15 16 17 17 18 19 19 20 21 21
27 25 25 24 23 21 19 16 15 14 13 12 12 11 12 12 12 12 11 10 8 7 7 7 7 7 6 6 7 7 7 7 7 8 10 11 12 13 14 15 16 18 19 20 20 20 21 22 22
28 26 25 24 22 21 20 16 15 14 13 13 12 11 11 12 12 11 11 10 8 7 7 7 6 6 6 6 6 6 6 7 8 8 9 10 11 13 14 15 16 18 19 20 20 20 21 22 23
Wind_Direction
78 75 71 72 69 66 64 61 57 53 49 48 46 43 42 44 47 49 49 50 52 56 61 73 83 88 87 90 90 88 85 83 78 75 73 72 65 63 62 70 74 77 77 78 80 88 92 93 94
77 73 70 69 68 65 63 61 57 52 46 44 41 39 37 39 42 45 47 47 47 47 55 70 81 86 83 85 88 91 90 86 80 73 68 67 65 65 64 67 75 77 83 85 82 90 94 99 100
74 71 66 66 66 66 64 60 55 50 46 42 38 35 33 34 37 40 42 40 39 40 51 69 75 80 80 83 90 92 88 85 81 70 62 63 68 65 59 64 73 78 83 84 79 91 94 100 105
74 68 68 63 61 62 61 60 55 48 44 41 38 34 31 30 31 33 35 36 34 32 43 59 66 73 72 78 89 91 96 90 85 74 60 59 65 64 62 70 71 73 78 81 85 95 94 96 102
75 69 69 62 58 56 57 56 52 46 43 39 35 29 26 25 26 28 29 29 28 28 30 44 58 60 59 70 84 86 96 91 88 77 67 64 64 62 62 70 75 71 76 84 87 96 99 101 102
80 72 64 55 53 52 54 53 49 43 39 35 32 27 22 21 19 21 22 20 20 25 30 36 41 41 44 53 71 76 89 89 88 85 78 73 67 65 61 66 69 68 78 91 90 95 106 111 109
77 65 43 40 47 50 52 50 44 37 33 30 26 23 19 17 15 16 17 18 20 23 28 33 37 32 38 9 346 154 151 126 111 96 87 77 72 64 64 64 65 72 85 96 97 99 105 118 118
79 75 16 22 35 42 45 44 39 34 31 27 22 20 17 14 12 11 12 16 17 18 24 28 29 19 19 9 186 175 177 168 155 134 117 98 97 79 70 64 64 72 83 104 110 107 112 105 109
49 17 347 359 12 28 34 35 35 31 28 25 20 16 14 10 8 7 8 11 12 13 17 20 18 6 356 308 235 192 177 180 176 167 162 153 134 103 86 74 72 82 98 115 120 115 119 117 113
345 348 349 350 357 13 22 27 28 26 25 22 19 15 9 5 3 3 3 6 9 10 12 13 15 12 357 328 241 199 194 202 190 184 185 187 178 157 127 103 90 100 128 129 132 138 146 144 134
337 337 341 339 348 1 9 13 18 21 23 20 16 13 6 1 358 357 357 3 6 6 6 3 7 6 355 331 251 215 199 209 204 201 202 198 189 190 186 175 161 162 163 163 155 155 173 178 184
335 330 329 331 340 351 2 7 9 12 15 13 11 9 3 356 354 351 351 358 3 4 2 359 358 352 336 315 279 235 206 215 216 215 216 210 202 204 209 202 198 188 179 179 178 185 198 205 211
322 321 320 322 328 339 353 0 1 5 9 7 3 1 359 355 352 350 350 352 357 0 360 353 352 344 336 314 277 244 232 229 226 222 224 224 218 214 215 219 210 199 192 191 191 202 210 205 202
299 301 301 305 315 330 348 358 2 5 7 8 5 0 357 354 351 345 348 351 353 356 358 353 347 346 342 323 265 259 257 238 234 229 228 226 221 220 222 226 217 212 206 203 206 213 213 198 195
277 279 283 293 303 317 331 346 354 355 1 6 3 359 357 355 349 345 349 348 347 346 348 350 343 337 331 313 281 271 258 253 245 235 236 231 222 219 221 219 216 213 211 210 211 215 213 210 210
259 263 274 287 297 304 309 327 336 344 353 358 358 357 356 353 350 346 341 339 340 335 335 337 336 331 325 312 295 277 268 260 243 237 239 235 226 219 220 217 218 218 217 215 216 218 217 218 218
255 258 266 276 286 295 306 314 323 329 340 345 347 350 350 349 347 343 337 332 333 331 324 323 325 319 313 298 293 294 279 258 244 240 238 236 230 227 221 221 223 225 225 222 222 223 224 221 224
255 258 264 271 279 288 299 304 308 317 326 328 332 340 345 345 343 338 331 327 325 322 314 312 308 305 297 293 293 297 284 265 252 245 242 243 238 234 229 226 225 227 227 228 228 230 227 229 231
257 259 262 266 273 280 288 292 298 305 314 319 322 329 338 339 335 332 326 320 319 315 305 303 299 293 283 289 290 288 277 261 257 244 247 246 238 236 228 224 223 222 223 227 227 230 230 232 236
257 256 258 264 272 277 282 287 294 299 306 312 315 320 330 332 330 329 325 317 307 309 297 291 284 282 276 279 282 282 276 263 257 247 248 247 240 230 223 220 222 222 222 224 226 231 233 236 241
254 253 255 261 270 277 281 286 291 295 302 309 314 319 323 326 328 327 327 324 313 302 301 296 284 274 272 274 278 279 273 266 257 251 245 243 235 230 225 223 225 225 227 229 231 234 237 240 242
251 252 254 259 266 272 280 282 287 290 299 307 312 317 319 320 323 326 327 321 313 303 300 296 289 268 266 270 268 266 268 263 260 253 245 239 236 232 230 229 228 229 230 232 236 240 243 245 246
249 253 256 261 266 271 276 279 284 285 295 302 308 312 314 319 323 325 329 323 316 304 300 295 291 285 273 269 265 262 258 259 259 254 251 244 234 231 233 233 235 235 236 236 237 242 247 250 252
249 254 258 263 267 270 274 277 280 283 291 296 303 305 308 318 325 327 329 326 318 306 298 287 286 285 283 272 267 264 259 257 257 255 253 245 237 234 237 237 238 238 239 239 240 243 247 251 253
249 253 258 262 266 270 273 274 279 282 285 290 296 303 306 319 323 324 325 326 321 310 306 297 286 288 290 278 270 267 264 261 257 253 250 249 243 239 241 241 239 239 239 241 244 246 247 251 254
248 252 257 262 265 266 269 272 278 281 282 286 294 303 311 319 320 322 326 325 319 310 301 302 292 292 295 288 281 272 271 269 268 256 248 248 248 248 246 244 241 240 242 245 248 249 250 252 256
247 251 255 258 261 263 267 271 274 279 279 283 290 300 305 312 318 322 327 324 316 312 323 314 300 298 297 291 290 289 276 273 269 256 250 250 251 250 248 246 245 244 247 249 252 252 253 256 258
243 247 251 255 259 262 266 270 274 274 278 283 286 296 303 305 312 317 325 323 316 307 318 325 323 308 299 298 294 289 281 277 271 258 254 255 253 252 249 248 246 247 249 250 251 254 256 259 261
243 246 250 255 260 263 266 269 273 273 275 278 281 291 301 307 311 314 320 324 325 313 310 315 313 308 304 301 298 288 280 281 278 268 262 258 256 257 256 252 250 250 253 255 256 258 259 261 263
241 245 248 253 259 263 266 267 267 268 269 272 279 286 298 307 311 314 318 320 318 316 316 315 313 312 309 304 299 290 281 277 278 279 273 266 263 262 262 260 258 255 256 259 260 262 263 264 265
Height
5896 5896 5896 5897 5896 5894 5891 5890 5889 5889 5888 5887 5887 5886 5886 5886 5886 5887 5885 5883 5883 5884 5884 5884 5884 5884 5884 5885 5885 5886 5887 5888 5889 5890 5891 5891 5892 5893 5893 5894 5895 5895 5896 5896 5897 5897 5897 5897 5898
5898 5899 5900 5899 5897 5896 5894 5893 5892 5892 5891 5889 5889 5888 5888 5887 5886 5886 5885 5884 5884 5884 5884 5884 5884 5884 5885 5885 5886 5887 5887 5888 5889 5890 5891 5892 5892 5893 5894 5895 5895 5895 5896 5896 5897 5897 5898 5898 5898
5900 5901 5902 5901 5899 5898 5897 5895 5895 5894 5892 5892 5891 5891 5890 5889 5888 5887 5886 5886 5885 5885 5885 5884 5884 5885 5885 5886 5886 5887 5888 5889 5889 5890 5891 5892 5893 5893 5894 5895 5895 5896 5896 5897 5897 5898 5898 5898 5899
5902 5903 5903 5903 5901 5900 5899 5898 5897 5896 5895 5894 5894 5893 5892 5891 5889 5888 5887 5886 5886 5886 5885 5885 5884 5885 5885 5886 5886 5887 5888 5889 5890 5891 5891 5892 5893 5893 5894 5895 5896 5896 5897 5897 5898 5898 5899 5899 5900
5904 5904 5904 5903 5903 5902 5901 5900 5899 5898 5897 5896 5896 5895 5894 5893 5891 5889 5888 5888 5887 5886 5885 5885 5885 5885 5885 5886 5887 5887 5888 5889 5890 5891 5892 5892 5893 5894 5895 5895 5896 5897 5897 5898 5898 5899 5899 5900 5900
5905 5905 5905 5905 5904 5903 5903 5902 5901 5900 5899 5898 5897 5896 5895 5894 5892 5891 5889 5889 5887 5886 5886 5885 5885 5885 5885 5886 5887 5887 5888 5889 5890 5891 5892 5893 5894 5894 5895 5896 5897 5897 5898 5898 5899 5899 5900 5900 5901
5906 5906 5905 5905 5905 5905 5904 5903 5902 5902 5901 5899 5898 5897 5896 5895 5894 5892 5890 5889 5888 5887 5886 5885 5885 5885 5885 5886 5886 5887 5888 5889 5890 5891 5892 5893 5894 5894 5895 5896 5897 5898 5898 5899 5899 5900 5900 5901 5902
5906 5907 5906 5906 5906 5906 5905 5904 5903 5903 5902 5901 5899 5898 5897 5896 5894 5892 5891 5889 5888 5887 5886 5885 5885 5885 5885 5885 5886 5887 5887 5888 5889 5891 5892 5893 5894 5895 5896 5897 5897 5898 5898 5899 5900 5900 5901 5902 5902
5907 5908 5906 5906 5906 5906 5906 5905 5905 5904 5903 5902 5900 5899 5898 5896 5894 5893 5891 5890 5888 5888 5886 5885 5885 5884 5885 5885 5886 5886 5887 5888 5889 5890 5891 5893 5894 5895 5896 5897 5898 5898 5899 5899 5900 5901 5901 5902 5903
5907 5907 5907 5907 5907 5906 5906 5905 5905 5905 5904 5903 5901 5899 5898 5896 5895 5893 5892 5890 5889 5888 5887 5886 5885 5884 5884 5885 5885 5886 5887 5888 5889 5890 5891 5892 5893 5895 5896 5897 5898 5899 5899 5900 5900 5901 5902 5902 5903
5907 5907 5907 5907 5907 5906 5906 5906 5905 5905 5904 5903 5902 5900 5898 5896 5894 5893 5891 5890 5889 5888 5887 5886 5885 5885 5884 5884 5885 5886 5886 5888 5889 5890 5891 5892 5893 5894 5895 5897 5898 5899 5899 5900 5901 5901 5902 5903 5903
5907 5907 5907 5907 5907 5907 5906 5906 5905 5905 5905 5903 5902 5900 5898 5895 5893 5892 5891 5890 5889 5887 5886 5886 5885 5885 5884 5884 5885 5885 5886 5887 5888 5889 5890 5891 5893 5894 5895 5896 5897 5898 5899 5900 5901 5901 5902 5903 5903
5907 5907 5907 5907 5907 5907 5906 5906 5905 5905 5904 5903 5901 5900 5897 5895 5893 5892 5891 5889 5888 5887 5886 5885 5885 5884 5884 5884 5884 5885 5886 5886 5887 5888 5889 5891 5892 5893 5895 5896 5897 5898 5899 5900 5901 5901 5902 5903 5904
5906 5906 5906 5906 5906 5906 5906 5906 5905 5905 5904 5903 5901 5900 5897 5895 5893 5892 5891 5889 5888 5887 5887 5886 5885 5884 5883 5883 5884 5884 5885 5885 5886 5887 5888 5889 5891 5892 5894 5895 5896 5897 5899 5900 5901 5901 5902 5903 5904
5905 5906 5906 5906 5905 5905 5906 5906 5905 5904 5903 5902 5901 5899 5897 5895 5893 5891 5890 5889 5888 5887 5886 5885 5884 5883 5883 5883 5883 5883 5883 5884 5885 5885 5887 5888 5889 5891 5893 5894 5895 5897 5898 5899 5900 5901 5902 5903 5903
5904 5905 5905 5905 5905 5905 5907 5906 5905 5903 5902 5902 5901 5899 5897 5895 5893 5891 5889 5888 5887 5886 5885 5884 5883 5882 5882 5882 5882 5882 5882 5883 5884 5885 5886 5887 5888 5889 5891 5893 5894 5896 5897 5898 5900 5901 5901 5902 5903
5903 5904 5904 5904 5904 5904 5904 5904 5904 5902 5901 5901 5900 5898 5897 5894 5892 5890 5888 5887 5885 5884 5884 5883 5882 5882 5881 5881 5881 5881 5881 5882 5883 5884 5885 5885 5886 5888 5890 5891 5893 5895 5896 5897 5899 5900 5901 5901 5902
5902 5902 5902 5903 5903 5903 5903 5903 5902 5901 5901 5900 5899 5897 5896 5894 5892 5890 5888 5886 5884 5883 5882 5881 5880 5880 5880 5880 5880 5880 5880 5881 5881 5882 5883 5884 5885 5887 5888 5890 5892 5893 5895 5897 5898 5899 5900 5900 5901
5900 5901 5901 5901 5901 5901 5901 5901 5901 5900 5899 5899 5897 5896 5895 5893 5891 5888 5886 5884 5883 5881 5880 5879 5879 5879 5879 5879 5879 5879 5879 5879 5880 5881 5882 5883 5884 5886 5887 5889 5891 5892 5894 5895 5896 5897 5898 5899 5900
5898 5899 5900 5899 5899 5899 5900 5900 5900 5899 5898 5897 5896 5894 5893 5891 5889 5887 5884 5882 5881 5879 5878 5876 5877 5877 5877 5877 5877 5877 5877 5878 5879 5880 5880 5881 5883 5884 5886 5887 5889 5891 5892 5894 5895 5896 5897 5898 5899
5896 5897 5897 5897 5897 5897 5898 5898 5898 5897 5896 5895 5894 5893 5891 5889 5887 5885 5883 5881 5879 5877 5875 5875 5874 5874 5875 5875 5876 5876 5876 5877 5877 5878 5879 5880 5881 5883 5884 5886 5888 5889 5891 5892 5893 5895 5896 5897 5898
5893 5893 5894 5894 5895 5895 5896 5896 5896 5895 5894 5893 5892 5891 5889 5887 5885 5883 5881 5878 5877 5875 5873 5873 5873 5873 5873 5873 5874 5875 5875 5876 5876 5877 5878 5879 5880 5881 5883 5884 5886 5888 5889 5891 5892 5893 5894 5895 5896
5889 5889 5891 5892 5892 5893 5893 5893 5894 5893 5892 5891 5890 5889 5887 5885 5883 5881 5878 5876 5874 5872 5872 5871 5872 5871 5871 5872 5872 5873 5873 5874 5875 5875 5876 5877 5878 5880 5881 5882 5884 5885 5887 5888 5890 5891 5892 5892 5893
5886 5887 5888 5888 5889 5890 5890 5890 5891 5891 5890 5889 5888 5887 5885 5883 5881 5879 5876 5874 5872 5871 5871 5870 5870 5870 5870 5870 5871 5871 5871 5872 5872 5873 5874 5875 5876 5877 5879 5880 5881 5883 5884 5885 5887 5888 5889 5890 5891
5882 5884 5885 5885 5886 5887 5887 5887 5889 5888 5887 5886 5886 5885 5883 5881 5879 5877 5875 5873 5871 5870 5869 5869 5869 5868 5868 5868 5869 5869 5869 5869 5870 5871 5872 5873 5874 5875 5876 5877 5878 5880 5881 5883 5884 5885 5886 5887 5887
5877 5879 5881 5882 5883 5883 5883 5884 5886 5885 5884 5884 5883 5883 5881 5879 5878 5876 5873 5871 5870 5869 5868 5868 5867 5867 5867 5866 5866 5866 5866 5866 5867 5868 5869 5870 5871 5872 5873 5874 5875 5877 5878 5879 5880 5881 5882 5883 5884
5873 5875 5877 5878 5878 5879 5880 5881 5883 5882 5882 5881 5881 5880 5879 5878 5876 5875 5872 5870 5868 5867 5866 5865 5865 5865 5865 5864 5864 5864 5863 5864 5864 5865 5866 5867 5868 5869 5870 5871 5872 5874 5875 5876 5877 5878 5878 5879 5880
5869 5870 5872 5873 5874 5875 5877 5878 5879 5879 5879 5879 5879 5878 5877 5876 5875 5873 5871 5868 5866 5866 5866 5865 5864 5863 5863 5862 5862 5861 5861 5862 5862 5862 5863 5864 5865 5866 5867 5868 5869 5870 5871 5872 5873 5874 5874 5875 5875
5864 5866 5867 5869 5870 5872 5873 5877 5876 5876 5876 5876 5876 5876 5875 5874 5873 5871 5870 5868 5866 5865 5865 5864 5863 5862 5861 5860 5860 5860 5860 5860 5860 5860 5861 5862 5862 5863 5863 5864 5865 5866 5867 5868 5869 5869 5870 5870 5870
5858 5861 5863 5865 5867 5868 5869 5874 5872 5873 5873 5873 5873 5873 5873 5872 5871 5869 5868 5866 5865 5864 5864 5863 5862 5861 5860 5859 5858 5858 5858 5858 5859 5859 5859 5859 5859 5860 5860 5860 5861 5862 5863 5863 5864 5864 5864 5865 5865